WB5OMR-9 Weather Reports


time (UTC)temp
C
wind
direction
speed
KPH
gust
KPH
rain 1hr
cm
rain 24hr
cm
rain mn
cm
humidity
%
barometer
mb
20260504221013 28 0.0 0.0 0.00 0.00 0.00 60 1010.2
20260504220011 28 0.0 0.0 0.00 0.00 0.00 59 1010.2
20260504215010 28 0.0 0.0 0.00 0.00 0.00 59 1010.2
20260504214009 28 0.0 0.0 0.00 0.00 0.00 59 1010.5
20260504213007 28 0.0 0.0 0.00 0.00 0.00 60 1010.5
20260504212006 28 0.0 0.0 0.00 0.00 0.00 59 1010.5
20260504211005 28 0.0 0.0 0.00 0.00 0.00 62 1010.8
20260504210004 27 0.0 0.0 0.00 0.00 0.00 61 1010.8
20260504205004 27 0.0 0.0 0.00 0.00 0.00 63 1011.5
20260504204002 27 0.0 0.0 0.00 0.00 0.00 64 1011.5
20260504203001 26 0.0 0.0 0.00 0.00 0.00 64 1011.9
20260504201918 26 0.0 0.0 0.00 0.00 0.00 64 1011.9
20260504200917 26 0.0 0.0 0.00 0.00 0.00 64 1011.9
20260504195834 26 0.0 0.0 0.00 0.00 0.00 64 1012.2
20260504194751 26 0.0 0.0 0.00 0.00 0.00 64 1012.2
20260504193750 26 0.0 0.0 0.00 0.00 0.00 65 1012.5
20260504192749 26 0.0 0.0 0.00 0.00 0.00 65 1012.5
20260504191747 26 0.0 0.0 0.00 0.00 0.00 64 1012.5
20260504190746 26 0.0 0.0 0.00 0.00 0.00 65 1012.5
20260504185703 26 0.0 0.0 0.00 0.00 0.00 65 1012.9
20260504184702 26 0.0 0.0 0.00 0.00 0.00 64 1012.5
20260504183701 26 0.0 0.0 0.00 0.00 0.00 65 1012.9
20260504182700 26 0.0 0.0 0.00 0.00 0.00 66 1013.2
20260504181659 26 0.0 0.0 0.00 0.00 0.00 65 1013.2
20260504180658 26 0.0 0.0 0.00 0.00 0.00 65 1013.2
20260504175615 26 0.0 0.0 0.00 0.00 0.00 66 1013.2
20260504174532 26 0.0 0.0 0.00 0.00 0.00 67 1013.2
20260504173449 25 0.0 0.0 0.00 0.00 0.00 69 1013.5
20260504172448 25 0.0 0.0 0.00 0.00 0.00 70 1013.9
20260504171446 25 0.0 0.0 0.00 0.00 0.00 70 1013.9
20260504170445 24 0.0 0.0 0.00 0.00 0.00 71 1013.9
20260504160233 22 0.0 0.0 0.00 0.00 0.00 75 1014.2
20260504150226 21 0.0 0.0 0.00 0.00 0.00 78 1014.6
20260504141057 19 0.0 0.0 0.00 0.00 0.00 81 1014.2
20260504081402 17 0.0 0.0 0.00 0.00 0.00 78 1014.9
20260504080401 17 0.0 0.0 0.00 0.00 0.00 77 1015.6
20260504070231 18 0.0 0.0 0.00 0.00 0.00 74 1015.9
20260504060142 18 0.0 0.0 0.00 0.00 0.00 72 1016.6
20260504050010 19 0.0 0.0 0.00 0.00 0.00 68 1016.9
20260504045008 19 0.0 0.0 0.00 0.00 0.00 68 1016.9
20260504044007 20 0.0 0.0 0.00 0.00 0.00 67 1016.9
20260504042924 20 0.0 0.0 0.00 0.00 0.00 67 1016.9
20260504041840 20 0.0 0.0 0.00 0.00 0.00 66 1016.9
20260504040757 20 0.0 0.0 0.00 0.00 0.00 66 1016.9
20260504035756 20 0.0 0.0 0.00 0.00 0.00 65 1016.9
20260504034754 20 0.0 0.0 0.00 0.00 0.00 65 1016.6
20260504033753 20 0.0 0.0 0.00 0.00 0.00 65 1016.9
20260504032752 20 0.0 0.0 0.00 0.00 0.00 64 1016.9
20260504031750 20 0.0 0.0 0.00 0.00 0.00 64 1016.9
20260504030749 20 0.0 0.0 0.00 0.00 0.00 63 1016.9
20260504025748 20 0.0 0.0 0.00 0.00 0.00 63 1016.6
20260504024747 20 0.0 0.0 0.00 0.00 0.00 63 1016.6
20260504023704 20 0.0 0.0 0.00 0.00 0.00 64 1016.6
20260504022702 21 0.0 0.0 0.00 0.00 0.00 62 1016.6
20260504021701 21 0.0 0.0 0.00 0.00 0.00 60 1016.6
20260504020700 21 0.0 0.0 0.00 0.00 0.00 59 1016.6
20260504015659 22 0.0 0.0 0.00 0.00 0.00 58 1016.6
20260504014657 22 0.0 0.0 0.00 0.00 0.00 55 1016.6
20260504013655 22 0.0 0.0 0.00 0.00 0.00 53 1016.6
20260504012653 23 0.0 0.0 0.00 0.00 0.00 52 1016.6
20260504011652 23 0.0 0.0 0.00 0.00 0.00 50 1016.3
20260504010651 23 0.0 0.0 0.00 0.00 0.00 49 1016.3
20260504005650 24 0.0 0.0 0.00 0.00 0.00 48 1016.6
20260504004649 25 0.0 0.0 0.00 0.00 0.00 47 1016.6
20260504003648 25 0.0 0.0 0.00 0.00 0.00 46 1016.6
20260504002647 25 0.0 0.0 0.00 0.00 0.00 45 1016.6
20260504001646 25 0.0 0.0 0.00 0.00 0.00 44 1016.6
20260504000645 26 0.0 0.0 0.00 0.00 0.00 43 1016.6
20260503235643 26 0.0 0.0 0.00 0.00 0.00 42 1016.6
20260503234600 26 0.0 0.0 0.00 0.00 0.00 41 1016.6
20260503233559 27 0.0 0.0 0.00 0.00 0.00 40 1016.6
20260503232558 27 0.0 0.0 0.00 0.00 0.00 40 1016.9
20260503231556 27 0.0 0.0 0.00 0.00 0.00 40 1016.9
20260503230555 27 0.0 0.0 0.00 0.00 0.00 39 1017.3
20260503225554 27 0.0 0.0 0.00 0.00 0.00 39 1017.3
20260503224553 28 0.0 0.0 0.00 0.00 0.00 39 1016.9
20260503223552 28 0.0 0.0 0.00 0.00 0.00 39 1017.3
20260503222551 28 0.0 0.0 0.00 0.00 0.00 40 1017.3
20260503221550 28 0.0 0.0 0.00 0.00 0.00 39 1017.6